Regional Weather Roundup
Issued by NWS

Home | Current Version | Previous Version | Graphics & Text | Print | Product List | Glossary Off
Versions: 1 2 3 4 5 6 7 8 9 10 11 12 13 14 15 16 17 18 19 20 21 22 23 24 25 26 27 28 29 30 31 32 33 34 35 36 37 38 39 40 41 42 43 44 45 46 47 48 49 50

000
ASUS45 KABQ 190010
RWRNM
WEATHER ROUNDUP FOR NEW MEXICO
NATIONAL WEATHER SERVICE ALBUQUERQUE NM
600 PM MDT SAT APR 18 2015

NOTE: "FAIR" MEANS FEW OR NO CLOUDS BELOW 12,000 FEET AGL WITH NO
       SIGNIFICANT WEATHER OR OBSTRUCTIONS TO VISION.

      THIS PRODUCT IS RELEASED AS TWO VERSIONS.  ONE VERSION NEAR
      THE TOP OF THE HOUR CONTAINING PRELIMINARY DATA FROM ALBUQUERQUE
      AND OTHER STATIONS.  A FINAL VERSION WITH ADDITIONAL DATA IS
      ISSUED ABOUT 10 MINUTES AFTER THE HOUR.

NMZ501-503-504-510>518-190100-
NORTHWEST PLATEAU/NORTHCENTRAL MOUNTAINS

CITY           SKY/WX    TMP DP  RH WIND       PRES   REMARKS
FARMINGTON     MOSUNNY   57  31  37 W25G32    29.93F
6HR MIN TEMP:  44; 6HR MAX TEMP:  59;

LOS ALAMOS     PTSUNNY   47  28  47 W10G23    29.96S
SANTA FE       PTSUNNY   51  25  36 NW14      29.93R
6HR MIN TEMP:  41; 6HR MAX TEMP:  54;

ANGEL FIRE     FLURRIES  35  32  89 E5        29.93S WCI  31

$$
NMZ402-403-502-505>509-190100-
WESTCENTRAL MOUNTAINS/SOUTHWEST MOUNTAINS

CITY           SKY/WX    TMP DP  RH WIND       PRES   REMARKS
GALLUP         MOSUNNY   61  11  14 NW16G35   30.00S
6HR MIN TEMP:  55; 6HR MAX TEMP:  61;

GRANTS         MOSUNNY   58  25  27 NW17G29   30.00R
SILVER CITY      N/A     66  19  16 NW18G24   29.96F

$$
NMZ407-409-411-412-190100-
SOUTHERN DESERTS

CITY           SKY/WX    TMP DP  RH WIND       PRES   REMARKS
LORDSBURG      FAIR      72  16  12 W20G29    29.92S
DEMING         SUNNY     73  20  13 NW23G29   29.91S
6HR MIN TEMP:  68; 6HR MAX TEMP:  74;

LAS CRUCES     SUNNY     73  20  13 W23G29    29.89S
HOLLOMAN AFB   CLOUDY    71  25  17 NW8       29.85S
ALAMOGORDO     PTSUNNY   70  25  18 NW7G17    29.87F
T OR C         MOSUNNY   70  22  16 NW16G24   29.89R
6HR MIN TEMP:  62; 6HR MAX TEMP:  72;


$$
NMZ519>523-190100-
CENTRAL VALLEYS/CENTRAL HIGHLANDS

CITY           SKY/WX    TMP DP  RH WIND       PRES   REMARKS
ALBUQUERQUE    MOSUNNY   62  24  23 N21G32    29.91R
6HR MIN TEMP:  52; 6HR MAX TEMP:  63;

DOUBLE EAGLE   MOSUNNY   61  27  27 NW26G33   29.93R
MORIARTY ARPT  FAIR      58  21  23 NW23G30   29.93S
6HR MIN TEMP:  54; 6HR MAX TEMP:  60;

CLINES CORNERS MOSUNNY   49  23  36 NW31G41   29.90R
6HR MIN TEMP:  49; 6HR MAX TEMP:  55;

BELEN          MOCLDY    67  20  16 NW22G32   29.90R
6HR MIN TEMP:  57; 6HR MAX TEMP:  68;

SOCORRO        FAIR      69  21  15 NW20G28   29.88R
6HR MIN TEMP:  63; 6HR MAX TEMP:  71;


$$
NMZ524>526-539-540-190100-
SOUTHCENTRAL MOUNTAINS

CITY           SKY/WX    TMP DP  RH WIND       PRES   REMARKS
RUIDOSO        MOSUNNY   57  21  24 W21G29    29.96S

$$
NMZ527>531-190100-
NORTHEAST HIGHLANDS/NORTHEAST PLAINS

CITY           SKY/WX    TMP DP  RH WIND       PRES   REMARKS
LAS VEGAS      SUNNY     52  15  23 W21G29    29.85S
6HR MIN TEMP:  46; 6HR MAX TEMP:  57;

RATON          CLOUDY    50  19  29 NW15      29.83R
6HR MIN TEMP:  48; 6HR MAX TEMP:  54;

CLAYTON        LGT RAIN  49  39  68 N5        29.82R
6HR MIN TEMP:  41; 6HR MAX TEMP:  57; 6HR PCP:  0.12;


$$
NMZ532>537-190100-
EASTCENTRAL PLAINS

CITY           SKY/WX    TMP DP  RH WIND       PRES   REMARKS
TUCUMCARI      MOSUNNY   68  18  14 W14       29.75S
6HR MIN TEMP:  53; 6HR MAX TEMP:  71;

CANNON AFB     NOT AVBL
CLOVIS AIRPORT MOSUNNY   68  25  19 W21G29    29.79R

$$
NMZ028-029-538-190100-
SOUTHEAST PLAINS

CITY           SKY/WX    TMP DP  RH WIND       PRES   REMARKS
ROSWELL        SUNNY     73  23  15 W14       29.80R
6HR MIN TEMP:  68; 6HR MAX TEMP:  77;

ARTESIA        MOSUNNY   75  25  15 W18G28    29.81R
CARLSBAD       MOSUNNY   77  21  12 W20G29    29.79F
6HR MIN TEMP:  73; 6HR MAX TEMP:  79;

HOBBS          MOSUNNY   72  25  17 SW20G25   29.82S


$$



USA.gov is the U.S. government's official web portal to all federal, state and local government web resources and services.